Regional Weather Roundup
Issued by NWS Sterling, VA

Home | Current Version | Previous Version | Graphics & Text | Print | Product List | Glossary On
Versions: 1 2 3 4 5 6 7 8 9 10 11 12 13 14 15 16 17 18 19 20 21 22 23 24 25 26 27 28 29 30 31 32 33 34 35 36 37 38 39 40 41 42 43 44 45 46 47 48 49 50
000
ASUS41 KLWX 221510
RWRLWX

REGIONAL WEATHER ROUNDUP
NATIONAL WEATHER SERVICE BALTIMORE MD/WASHINGTON DC
1100 AM EDT TUE JUL 22 2014

Note: "FAIR" indicates few or no clouds below 12,000 feet
with no significant weather and/or obstructions to visibility.
 TC=TEMPERATURE CELSIUS

 * =Non NWS site. Station does not report precipitation (e.g. rain,
    snow, etc.), thunder, or fog.

DCZ001-MDZ009-015-VAZ040>042-051-053>054-221600-
WASHINGTON METRO
  /KDAA//-FT BELVOIR

CITY           SKY/WX    TMP DP  RH WIND       PRES   REMARKS
WASHINGTON NAT MOSUNNY   82  69  64 S8        30.18F
DULLES         PTSUNNY   77  69  76 W8        30.19F
ANDREWS AFB    PTSUNNY   80  69  69 S6        30.19F
QUANTICO       PTSUNNY   79  70  74 S8        30.19F
COLLEGE PARK*  CLOUDY    79  70  73 CALM      30.18F
LEESBURG*      CLOUDY    77  73  88 S6        30.20F
MANASSAS*      CLOUDY    77  72  83 S5        30.19F
GAITHERSBURG*  CLOUDY    77  70  78 S3        30.23F

$$

MDZ006>007-011-014-221600-
BALTIMORE METRO

CITY           SKY/WX    TMP DP  RH WIND       PRES   REMARKS
BWI AIRPORT    PTSUNNY   78  68  71 SW7       30.18F
MD SCIENCE CTR   N/A     81  68  64 MISG      30.19S
MARTIN STATE   PTSUNNY   81  73  78 S7        30.19F
ANNAPOLIS      MOSUNNY   78  69  73 SE9       30.18F
FORT MEADE*    PTSUNNY   79  70  73 SE6       30.20F

$$

MDZ012-015-019>023-221600-
MARYLAND EASTERN SHORE

CITY           SKY/WX    TMP DP  RH WIND       PRES   REMARKS
OCEAN CITY     MOSUNNY   76  68  76 E5        30.20S
SALISBURY      NOT AVBL
BAY BRIDGE AP*   N/A     81  63  54 SE7       30.18F
CAMBRIDGE*     SUNNY     82  63  51 CALM      30.18S
EASTON*        SUNNY     82  66  57 SE6       30.22F

$$

MDZ017>025-221600-
SOUTHERN MARYLAND

CITY           SKY/WX    TMP DP  RH WIND       PRES   REMARKS
PATUXENT RIVER PTSUNNY   78  70  76 E8        30.19S
ST INIGOES     MOSUNNY   80  64  58 SE7       30.18S
LEONARDTOWN*   MOSUNNY   79  68  69 E5        30.20S

$$

MDZ003>005-221600-
NORTH CENTRAL MARYLAND

CITY           SKY/WX    TMP DP  RH WIND       PRES   REMARKS
FREDERICK*     CLOUDY    79  73  83 SW5       30.21F
HAGERSTOWN APT CLOUDY    78  69  73 S9        30.18F
WESTMINSTER*   CLOUDY    75  72  88 SW5       30.20F

$$

MDZ501>502-221600-
WESTERN MARYLAND

CITY           SKY/WX    TMP DP  RH WIND       PRES   REMARKS
OAKLAND*       MOSUNNY   72  68  88 SW5       30.26S
CUMBERLAND*    PTSUNNY   84  72  65 NW3       30.20F

$$

VAZ025>031-221600-
SHENANDOAH VALLEY

CITY           SKY/WX    TMP DP  RH WIND       PRES   REMARKS
WINCHESTER*    CLOUDY    79  70  73 S3        30.18F
STAUNTON*      PTSUNNY   78  68  72 S6        30.22F

$$

WVZ021-048>050-054>055-221600-
EASTERN WEST VIRGINIA PANHANDLE

CITY           SKY/WX    TMP DP  RH WIND       PRES   REMARKS
MARTINSBURG    CLOUDY    78  67  68 S6        30.18F
PETERSBURG*    SUNNY     80  62  54 CALM      30.18F

$$

VAZ036>039-050-221600-
CENTRAL FOOTHILLS

CITY           SKY/WX    TMP DP  RH WIND       PRES   REMARKS
CHARLOTTESVILL CLOUDY    78  71  79 S6        30.19F
ORANGE*        CLOUDY    79  70  73 SE6       30.21S

$$

VAZ055>057-221600-
NORTH AND CENTRAL PIEDMONT

CITY           SKY/WX    TMP DP  RH WIND       PRES   REMARKS
FREDERICKSBRG* PTSUNNY   79  70  72 SE5       30.18F
STAFFORD*      CLOUDY    77  73  86 S3        30.23S

$$

NCZ024-NYZ072-PAZ021-071-VAZ022-071-221600-
OTHER REGIONAL OBSERVATIONS

CITY           SKY/WX    TMP DP  RH WIND       PRES   REMARKS
NEW YORK CITY  SUNNY     80  66  62 VRB3      30.18F
PHILADELPHIA   MOSUNNY   81  66  60 SW5       30.18F
PITTSBURGH     MOSUNNY   80  69  69 SW6       30.15F
ROANOKE        PTSUNNY   77  68  73 SE7       30.22F
RICHMOND       CLOUDY    83  66  56 VRB5      30.18F
RALEIGH        PTSUNNY   79  70  74 E6        30.18S

$$

ANZ530>537-221600-
MARINE OBSERVATIONS

STATION/POSITION TIME  TEMP    WIND        PRES
                       AIR SEA DIR/SP/G
                 (UTC) (F)     (DEG/KT/KT) (MB)
THOMAS PT LIGHT  1500   77 79  180/  5/  6 1022.6F
BALT KEY BRIDGE  1500   87     140/  4/  5 1021.8F
COVE POINT       1500   76     170/  5/  6 1022.1S
LEWISETTA        1500   77 80  110/  8/ 10 1022.0F
SOLOMONS ISLAND  1500      81                N/A
PINEY POINT      1500          160/  9/ 10   N/A

$$




USA.gov is the U.S. government's official web portal to all federal, state and local government web resources and services.